Regional Weather Roundup
Issued by NWS

Home | Current Version | Previous Version | Text Only | Print | Product List | Glossary On
Versions: 1 2 3 4 5 6 7 8 9 10 11 12 13 14 15 16 17 18 19 20 21 22 23 24 25 26 27 28 29 30 31 32 33 34 35 36 37 38 39 40 41 42 43 44 45 46 47 48 49 50
000
ASUS46 KSTO 041015
RWRCA

NORTHERN AND CENTRAL CA REGIONAL WEATHER ROUNDUP
NATIONAL WEATHER SERVICE SACRAMENTO CA
200 AM PST SUN DEC 04 2016

NOTE: FAIR INDICATES FEW OR NO CLOUDS BELOW 12,000 FEET WITH NO
SIGNIFICANT WEATHER AND/OR OBSTRUCTIONS TO VISIBILITY.

CAZ001-003-041100-
NORTHWEST AREA

CITY           SKY/WX    TMP DP  RH WIND       PRES   REMARKS
CRESCENT CITY  CLOUDY    44  42  93 E6        30.30S
UKIAH          PTCLDY    39  38  96 CALM      30.20F
$$

CAZ006-505>513-041100-
BAY AREA

CITY           SKY/WX    TMP DP  RH WIND       PRES   REMARKS
SANTA ROSA     FOG       38  38 100 CALM      30.17S VSB 1/2
SAN RAFAEL     N/A       46  MM  MM MISG
NAPA           CLEAR     39  35  86 N6        30.18F WCI  35
CONCORD        PTCLDY    42  36  79 SE3       30.19S
OAKLAND CITY   N/A       49  MM  MM MISG
OAKLAND        PTCLDY    47  42  83 SE3       30.18S
SAN FRAN CITY  N/A       51  MM  83 MISG
SAN FRAN ARPT  CLEAR     49  44  83 S3        30.18S
LIVERMORE      PTCLDY    38  35  89 E3        30.18F
HAYWARD        PTCLDY    45  36  70 E3        30.18S
REDWOOD CITY   N/A       42  MM  91 MISG
MOFFETT ARPT   CLEAR     45  39  79 CALM      30.19F
SAN JOSE ARPT  CLEAR     45  39  79 SE3       30.18F
$$
CAZ034-037-514>518-041100-
CENTRAL COAST

CITY           SKY/WX    TMP DP  RH WIND       PRES   REMARKS
WATSONVILLE    PTCLDY    42  39  89 CALM      30.19S
SALINAS        PTCLDY    42  37  82 E6        30.19R
MONTEREY       PTCLDY    42  38  85 E6        30.18F
SAN LUIS OBISP CLEAR     47  35  63 E6        30.11F
SANTA MARIA    CLEAR     42  40  92 S5        30.11F
$$
CAZ015-016-041100-
NORTHERN SACRAMENTO VALLEY

CITY           SKY/WX    TMP DP  RH WIND       PRES   REMARKS
REDDING        MOCLDY    44  38  79 CALM      30.15F
RED BLUFF      PTCLDY    42  39  89 SW7       30.19S
OROVILLE       CLEAR     43  39  86 E7        30.20F
$$
CAZ016>018-041100-
SOUTHERN SACRAMENTO VALLEY

CITY           SKY/WX    TMP DP  RH WIND       PRES   REMARKS
AUBURN         CLEAR     43  39  87 E6        30.20S
BEALE AFB      CLEAR     39  37  93 E8        30.19S WCI  34
LINCOLN        FAIR      37  36  93 E7        30.20S WCI  32
MARYSVILLE     CLEAR     38  35  89 CALM      30.21S
SAC INTL ARPT  CLEAR     37  37 100 CALM      30.20S
MATHER AIRPORT NOT AVBL
DOWNTOWN SAC   N/A       41  MM  MM MISG
SAC EXEC ARPT  CLEAR     39  39 100 CALM      30.21R FOG
VACAVILLE      CLEAR     36  36 100 CALM      30.20F
TRAVIS AFB     CLEAR     35  34  96 N2        30.17F
$$
CAZ019>021-041100-
SAN JOAQUIN VALLEY

CITY           SKY/WX    TMP DP  RH WIND       PRES   REMARKS
STOCKTON       PTCLDY    40  38  93 E6        30.20S FOG
MODESTO        CLEAR     39  36  89 SE5       30.20S FOG
MERCED         CLEAR     39  36  89 E3        30.20S FOG
LEMOORE        CLEAR     36  32  85 S3        30.21S
FRESNO         CLEAR     40  36  86 CALM      30.21S FOG
HANFORD        CLEAR     35  35 100 E3        30.21S FOG
PORTERVILLE    CLEAR     37  35  92 E3        30.21F
BAKERSFIELD    CLEAR     40  33  76 E3        30.19F
$$
CAZ011-012-071-041100-
NORTHERN MOUNTAINS

CITY           SKY/WX    TMP DP  RH WIND       PRES   REMARKS
YREKA          CLEAR     27  25  92 NE7       30.27F WCI  19
MOUNT SHASTA   PTCLDY    32  28  85 NE5       30.21F WCI  27
ALTURAS        MOCLDY    25  23  92 CALM      30.22F
$$
CAZ011-012-071-041100-
SIERRA NEVADA MTNS

CITY           SKY/WX    TMP DP  RH WIND       PRES   REMARKS
BLUE CANYON    CLEAR     50  13  22 N6        30.23S
TRUCKEE        MOCLDY    23  21  93 CALM      30.26F
TAHOE VLY ARPT CLOUDY    25  19  78 CALM      30.26S
MAMMOTH LAKES  FAIR      23  16  75 N3        30.28F
$$




USA.gov is the U.S. government's official web portal to all federal, state and local government web resources and services.